Showing default

GALILEO 18 (26E), 41862

Orbit data source: Space-Track

GALILEO 18 (26E), 41862 is a payload satellite owned by GNSS Agency (ESA) that was launched on Thu, 17 Nov 2016 UTC via an ARIANE 5ES launch vehicle from the French Guiana (FRGUI). Payload-class satellites include a variety of spacecraft equipped with specific instruments for various scientific and technological missions. These include communications satellites like Starlink; space stations such as the ISS; scientific satellites like the Hubble; Earth observation satellites from companies like Planet Labs, Umbra, and HawkEye 360; GPS; miniature CubeSats for education and research; and military/defense satellites.

Loading next visibility...
Identifier
41862, 2016-069D
Orbit
Active
Country
Flag of ESAESA
Related business
Manufacturer
OHB
Mission
Operational Civil Navigation
Bus & Motor
GALILEOSAT, AOCS
Mass
738 kg wet, 700 kg dry
Launch date (UTC)
2016-11-17 (10 years ago)
Launch vehicle
ARIANE 5ES
Launch site
French Guiana (FRGUI)
Object type
Payload
Rocket body
Debris
Shape & HBR
Box + 2 Pan, 7.3 m
Radar Cross Section
9.223 m², Large (>1 m²)

Expand to show TLE details & history
Last TLE update: 4 days ago

TLE from 4 days ago
0 GALILEO 18 (26E)
1 41862U 16069D   26169.87201710 -.00000012  00000-0  00000-0 0  9997
2 41862  55.4996 101.0352 0004721 311.5610  48.3755  1.70473520 59672
Epoch: 2026-06-18T20:55Z
TLE epoch observation values (Epoch: 2026-06-18T20:55:42.277Z)
Latitude
-0.00001°
Longitude
-120.00079°
Altitude
23,213.234 km
Speed
3.671 km/s
True Right ascension
06h 44m 08s
True Declination
0° 00' 00"
Sunlit
Object was in daylight at epoch
Visualization orbit readout
Latitude
Unknown
Longitude
Unknown
Altitude
Unknown
Speed
Unknown
Apparent Right ascension
Unknown
Apparent Declination
Unknown
Sunlit
N/A
Visualization observer readout
Local Sidereal Time
21:39:46
Azimuth
Unknown
Elevation
Unknown
Doppler factor
Unknown
Orbital elements
Apogee altitude
23,236.203 km
Perigee altitude
23,208.255 km
Semi-major axis
29,600.366 km
Eccentricity
0.00047
Inclination
55.4996°
RAAN
101.0352°
Arg. of periapsis
311.561°
True anomaly
48.41596°
Mean anomaly
48.3755°
Eccentric anomaly
48.39573°
Mean motion
0.42618 °/min
Orbital period
844.7 mins
BSTAR
0
Loading maneuver chart data...
Computing Atmospheric mass density...
Loading historical data...
Loading historical data...
Loading historical data...
Loading historical data...
Loading historical data...
Loading historical data...
Loading historical data...
Other satellites on launch #69 in the year 2016 (2016-11-17 UTC)

Documentation

Showing up to 5 results
|